Location: ???????
(54.6339°N, 39.4245°E)
Time: 06:29:53
(UTC+00:00)

Cosmos 2123 Rocket - Pass Details

Date: 19 May 2025
Orbit: 960 x 991 km, 82.9° (Epoch: 15 June)

Event Time Altitude Azimuth Distance (km) Brightness Sun altitude
Exits shadow 21:46:03 19° 165° (SSE) 2,148 5.2 -15.2°
Maximum altitude 21:50:31 57° 93° (E) 1,156 4.4 -15.1°
Drops below altitude 10° 21:56:42 10° 17° (NNE) 2,764 7.8 -15.0°
Sets 21:59:15 0° 13° (NNE) 3,714 9.0 -14.9°
